Meteo pe oră la A dos Cunhados

Astăzi, 14 Iunie, Luni

Timp Temperatura Precipitaţii Vânt Presiune Umiditate
00:00 +18°C° 0 mm 1 m/s 755 mmHg 93%
01:00 +18°C° 0 mm 1 m/s 755 mmHg 92%
02:00 +18°C° 0 mm 1 m/s 755 mmHg 91%
03:00 +18°C° 0 mm 1 m/s 755 mmHg 91%
04:00 +18°C° 0 mm 1 m/s 755 mmHg 91%
05:00 +17°C° 0 mm 2 m/s 755 mmHg 91%
06:00 +19°C° 0 mm 2 m/s 756 mmHg 82%
07:00 +22°C° 0 mm 1 m/s 756 mmHg 72%
08:00 +25°C° 0 mm 1 m/s 756 mmHg 63%
09:00 +27°C° 0 mm 2 m/s 756 mmHg 56%
10:00 +29°C° 0 mm 2 m/s 756 mmHg 48%
11:00 +31°C° 0 mm 2 m/s 755 mmHg 41%
12:00 +30°C° 0 mm 3 m/s 755 mmHg 43%
13:00 +29°C° 0 mm 4 m/s 755 mmHg 45%
14:00 +28°C° 0 mm 5 m/s 755 mmHg 47%
15:00 +27°C° 0 mm 5 m/s 754 mmHg 52%
16:00 +26°C° 0 mm 5 m/s 754 mmHg 57%
17:00 +25°C° 0 mm 4 m/s 754 mmHg 62%
18:00 +22°C° 0 mm 4 m/s 754 mmHg 72%
19:00 +20°C° 0 mm 4 m/s 754 mmHg 82%
20:00 +18°C° 0 mm 4 m/s 754 mmHg 92%
21:00 +18°C° 0 mm 3 m/s 754 mmHg 90%
22:00 +18°C° 0 mm 2 m/s 754 mmHg 87%
23:00 +19°C° 0 mm 1 m/s 753 mmHg 85%

Mâine, 15 Iunie, Marţi

Timp Temperatura Precipitaţii Vânt Presiune Umiditate
00:00 +17°C° 0 mm 2 m/s 753 mmHg 86%
01:00 +17°C° 0 mm 2 m/s 753 mmHg 86%
02:00 +17°C° 0 mm 2 m/s 753 mmHg 87%
03:00 +17°C° 0 mm 2 m/s 753 mmHg 89%
04:00 +17°C° 0 mm 2 m/s 753 mmHg 90%
05:00 +17°C° 0 mm 2 m/s 753 mmHg 92%
06:00 +20°C° 0 mm 2 m/s 753 mmHg 80%
07:00 +23°C° 0 mm 2 m/s 753 mmHg 67%
08:00 +26°C° 0 mm 1 m/s 753 mmHg 55%
09:00 +28°C° 0 mm 2 m/s 752 mmHg 50%
10:00 +30°C° 0 mm 2 m/s 752 mmHg 45%
11:00 +31°C° 0 mm 3 m/s 752 mmHg 39%
12:00 +30°C° 0 mm 3 m/s 752 mmHg 42%
13:00 +29°C° 0 mm 4 m/s 752 mmHg 45%
14:00 +28°C° 0 mm 4 m/s 751 mmHg 48%
15:00 +27°C° 0 mm 4 m/s 751 mmHg 53%
16:00 +26°C° 0 mm 4 m/s 751 mmHg 57%
17:00 +23°C° 0 mm 4 m/s 750 mmHg 62%
18:00 +21°C° 0 mm 3 m/s 751 mmHg 72%
19:00 +19°C° 0 mm 2 m/s 751 mmHg 82%
20:00 +19°C° 0 mm 1 m/s 751 mmHg 92%
21:00 +17°C° 0 mm 2 m/s 751 mmHg 93%
22:00 +17°C° 0 mm 2 m/s 751 mmHg 94%
23:00 +17°C° 0 mm 2 m/s 751 mmHg 94%

Poimâine, 16 Iunie, Miercuri

Timp Temperatura Precipitaţii Vânt Presiune Umiditate
00:00 +17°C° 0 mm 2 m/s 750 mmHg 95%
01:00 +16°C° 0 mm 2 m/s 750 mmHg 96%
02:00 +16°C° 0 mm 2 m/s 750 mmHg 96%
03:00 +17°C° 0 mm 2 m/s 750 mmHg 95%
04:00 +17°C° 0 mm 2 m/s 750 mmHg 95%
05:00 +17°C° 0 mm 2 m/s 750 mmHg 94%
06:00 +19°C° 0 mm 2 m/s 750 mmHg 86%
07:00 +20°C° 0 mm 3 m/s 750 mmHg 77%
08:00 +22°C° 0 mm 3 m/s 751 mmHg 69%
09:00 +24°C° 0 mm 3 m/s 751 mmHg 64%
10:00 +25°C° 0 mm 4 m/s 751 mmHg 58%
11:00 +26°C° 0 mm 4 m/s 751 mmHg 53%
12:00 +26°C° 0 mm 4 m/s 750 mmHg 53%
13:00 +26°C° 0 mm 4 m/s 750 mmHg 53%
14:00 +26°C° 0 mm 4 m/s 750 mmHg 54%
15:00 +23°C° 0 mm 4 m/s 750 mmHg 59%
16:00 +22°C° 0 mm 4 m/s 750 mmHg 64%
17:00 +21°C° 0 mm 4 m/s 750 mmHg 69%
18:00 +20°C° 0 mm 4 m/s 750 mmHg 75%
19:00 +19°C° 0 mm 4 m/s 750 mmHg 81%
20:00 +18°C° 0 mm 4 m/s 751 mmHg 86%
21:00 +17°C° 0 mm 5 m/s 751 mmHg 88%
22:00 +17°C° 0 mm 5 m/s 751 mmHg 90%
23:00 +17°C° 0 mm 5 m/s 751 mmHg 92%

17 Iunie, Joi

Timp Temperatura Precipitaţii Vânt Presiune Umiditate
00:00 +16°C° 0 mm 5 m/s 751 mmHg 92%
01:00 +16°C° 0 mm 6 m/s 751 mmHg 91%
02:00 +16°C° 0 mm 6 m/s 750 mmHg 91%
03:00 +16°C° 0 mm 6 m/s 751 mmHg 90%
04:00 +16°C° 0 mm 6 m/s 751 mmHg 89%
05:00 +16°C° 0 mm 6 m/s 751 mmHg 88%
06:00 +17°C° 0 mm 7 m/s 751 mmHg 82%
07:00 +17°C° 0 mm 7 m/s 751 mmHg 77%
08:00 +18°C° 0 mm 7 m/s 752 mmHg 71%
09:00 +20°C° 0 mm 7 m/s 752 mmHg 69%
10:00 +20°C° 0 mm 7 m/s 752 mmHg 68%
11:00 +20°C° 0 mm 6 m/s 753 mmHg 66%
12:00 +20°C° 0 mm 7 m/s 752 mmHg 67%
13:00 +20°C° 0 mm 7 m/s 752 mmHg 68%
14:00 +20°C° 0 mm 7 m/s 752 mmHg 68%
15:00 +18°C° 0.1 mm 7 m/s 752 mmHg 71%
16:00 +17°C° 0.1 mm 7 m/s 752 mmHg 74%
17:00 +17°C° 0.1 mm 7 m/s 752 mmHg 77%
18:00 +16°C° 0.2 mm 7 m/s 753 mmHg 81%
19:00 +15°C° 0.2 mm 6 m/s 753 mmHg 85%
20:00 +15°C° 0.2 mm 6 m/s 753 mmHg 89%
21:00 +15°C° 0.2 mm 6 m/s 753 mmHg 89%
22:00 +15°C° 0.2 mm 6 m/s 753 mmHg 90%
23:00 +14°C° 0.2 mm 5 m/s 752 mmHg 90%

18 Iunie, Vineri

Timp Temperatura Precipitaţii Vânt Presiune Umiditate
00:00 +14°C° 0.3 mm 5 m/s 752 mmHg 90%
01:00 +14°C° 0.3 mm 5 m/s 752 mmHg 91%
02:00 +14°C° 0.3 mm 5 m/s 752 mmHg 91%
03:00 +14°C° 0.3 mm 5 m/s 752 mmHg 92%
04:00 +14°C° 0.3 mm 5 m/s 752 mmHg 92%
05:00 +14°C° 0.3 mm 6 m/s 752 mmHg 92%
06:00 +15°C° 0.1 mm 5 m/s 752 mmHg 88%
07:00 +16°C° 0.1 mm 5 m/s 752 mmHg 83%
08:00 +17°C° 0.1 mm 5 m/s 752 mmHg 79%
09:00 +19°C° 0.2 mm 5 m/s 752 mmHg 74%
10:00 +20°C° 0.2 mm 5 m/s 752 mmHg 69%
11:00 +21°C° 0.2 mm 5 m/s 752 mmHg 65%
12:00 +21°C° 0.1 mm 5 m/s 752 mmHg 62%
13:00 +22°C° 0.1 mm 5 m/s 752 mmHg 60%
14:00 +22°C° 0.1 mm 6 m/s 752 mmHg 58%
15:00 +21°C° 0.1 mm 6 m/s 752 mmHg 62%
16:00 +20°C° 0.1 mm 6 m/s 752 mmHg 67%
17:00 +19°C° 0.1 mm 6 m/s 752 mmHg 71%
18:00 +17°C° 0 mm 6 m/s 752 mmHg 79%
19:00 +16°C° 0 mm 6 m/s 752 mmHg 87%
20:00 +14°C° 0 mm 6 m/s 752 mmHg 95%
21:00 +14°C° 0.1 mm 6 m/s 752 mmHg 95%
22:00 +14°C° 0.1 mm 5 m/s 752 mmHg 95%
23:00 +14°C° 0.1 mm 5 m/s 753 mmHg 95%

19 Iunie, Sâmbătă

Timp Temperatura Precipitaţii Vânt Presiune Umiditate
00:00 +14°C° 0.1 mm 5 m/s 752 mmHg 93%
01:00 +14°C° 0.1 mm 6 m/s 752 mmHg 92%
02:00 +15°C° 0.1 mm 6 m/s 752 mmHg 91%
03:00 +15°C° 0.2 mm 6 m/s 752 mmHg 90%
04:00 +15°C° 0.2 mm 6 m/s 752 mmHg 88%
05:00 +15°C° 0.2 mm 6 m/s 753 mmHg 87%
06:00 +15°C° 0.3 mm 6 m/s 753 mmHg 86%
07:00 +15°C° 0.3 mm 6 m/s 753 mmHg 86%
08:00 +16°C° 0.3 mm 6 m/s 753 mmHg 85%
09:00 +16°C° 0.1 mm 6 m/s 753 mmHg 78%
10:00 +17°C° 0.1 mm 6 m/s 753 mmHg 71%
11:00 +18°C° 0.1 mm 7 m/s 753 mmHg 64%
12:00 +20°C° 0 mm 6 m/s 753 mmHg 59%
13:00 +20°C° 0 mm 6 m/s 753 mmHg 53%
14:00 +21°C° 0 mm 6 m/s 753 mmHg 47%
15:00 +20°C° 0 mm 6 m/s 753 mmHg 51%
16:00 +19°C° 0 mm 5 m/s 753 mmHg 54%
17:00 +19°C° 0 mm 5 m/s 753 mmHg 57%
18:00 +17°C° 0 mm 4 m/s 754 mmHg 68%
19:00 +14°C° 0 mm 3 m/s 754 mmHg 78%
20:00 +14°C° 0 mm 2 m/s 754 mmHg 89%
21:00 +14°C° 0 mm 2 m/s 754 mmHg 90%
22:00 +14°C° 0 mm 2 m/s 754 mmHg 91%
23:00 +14°C° 0 mm 2 m/s 754 mmHg 92%
Arată mai mult

Formular de consimțământ

Meteoprog și furnizorii noștri de servicii pot stoca și accesa date personale, precum cookies, identificatori de dispozitiv sau alte tehnologii similare pe dispozitivul dumneavoastră și procesa astfel de date pentru a personaliza conținutul și reclamele, dar și pentru a oferi caracteristici de social media și pentru a analiza traficul.

  • Stocarea și/sau accesarea informațiilor pe dispozitivul dumneavoastră

    Cookies, identificatori de dispozitiv sau alte informații pot fi stocate sau accesate pe dispozitiv în scopurile indicate mai sus.

  • Reclame și conținut personalizat, evaluarea reclamelor și a conținutului, informații despre audiențe și dezvoltarea produselor

    Reclamele și conținutul pot fi personalizate pe baza unui profil. Pot fi adăugate date suplimentare pentru a personaliza mai bine reclamele și conținutul. Performanța reclamelor și conținutului poate fi măsurată. Pot fi obținute informații despre utilizatorii care au văzut reclamele și conținutul. Aceste date pot fi utilizate pentru a dezvolta sau îmbunătăți experiența utilizatorilor, sistemele și software-ul.

Dând clic pe ‘Sunt de acord’, permiteți utilizarea cookie-urilor menționate, a identificatorilor de dispozitiv, balizelor web sau altor tehnologii similare. Setările pot fi modificate din browser-ul dispozitivului dumneavoastră.

În anumite scopuri, interesele legitime pot prima asupra consimțământului. Puteți citi mai multe informații în acest sens în Politica privind Confidențialitatea Datelor și Cookie.